This is the latest recevied weather packets stored in our database for station/object K1RFS. If no packets are shown the sender has not sent any weather packets the latest 10 day(s).
| Time | Temp. | Humidity | Pressure | Rain* | Wind** | Luminosity | Snow |
|---|---|---|---|---|---|---|---|
| 1787942491 | 26.67° C | 38% | 1005.2 hPa | 0 mm | - | 148 W/m² | - |
| 1787942186 | 26.67° C | 38% | 1005.3 hPa | 0 mm | - | 139 W/m² | - |
| 1787941882 | 26.67° C | 39% | 1005.4 hPa | 0 mm | - | 127 W/m² | - |
| 1787941581 | 26.67° C | 39% | 1005.4 hPa | 0 mm | - | 117 W/m² | - |
| 1787941275 | 26.67° C | 40% | 1005.6 hPa | 0 mm | - | 117 W/m² | - |
| 1787940975 | 26.67° C | 38% | 1005.8 hPa | 0 mm | - | 134 W/m² | - |
| 1787940675 | 26.67° C | 36% | 1005.8 hPa | 0 mm | - | 160 W/m² | - |
| 1787940373 | 27.22° C | 36% | 1005.8 hPa | 0 mm | - | 123 W/m² | - |
| 1787940073 | 26.67° C | 36% | 1005.8 hPa | 0 mm | - | 106 W/m² | - |
| 1787939767 | 26.67° C | 38% | 1006 hPa | 0 mm | - | 125 W/m² | - |
| 1787939461 | 26.67° C | 38% | 1006 hPa | 0 mm | - | 158 W/m² | - |
| 1787939157 | 26.67° C | 38% | 1006.1 hPa | 0 mm | - | 165 W/m² | - |
| 1787938866 | 26.67° C | 37% | 1005.7 hPa | 0 mm | - | 156 W/m² | - |
| 1787938555 | 26.67° C | 37% | 1005.8 hPa | 0 mm | - | 155 W/m² | - |
| 1787938246 | 26.67° C | 36% | 1005.6 hPa | 0 mm | - | 142 W/m² | - |
| 1787937945 | 26.67° C | 36% | 1005.6 hPa | 0 mm | - | 137 W/m² | - |
| 1787937641 | 26.67° C | 36% | 1005.6 hPa | 0 mm | - | 139 W/m² | - |
| 1787937338 | 26.67° C | 36% | 1005.4 hPa | 0 mm | - | 126 W/m² | - |
| 1787937033 | 27.22° C | 35% | 1005.5 hPa | 0 mm | - | 113 W/m² | - |
| 1787936732 | 27.22° C | 35% | 1005.3 hPa | 0 mm | - | 101 W/m² | - |
| 1787936427 | 26.67° C | 36% | 1005.5 hPa | 0 mm | - | 99 W/m² | - |
| 1787936126 | 26.67° C | 36% | 1005.7 hPa | 0 mm | - | 101 W/m² | - |
| 1787935822 | 26.67° C | 35% | 1005.8 hPa | 0 mm | - | 102 W/m² | - |
| 1787935518 | 26.11° C | 40% | 1005.7 hPa | 0 mm | - | 102 W/m² | - |
| 1787935214 | 26.11° C | 42% | 1005.7 hPa | 0 mm | - | 92 W/m² | - |
* Rain latest hour (hover to see other rain measurements)
** Current wind speed in m/s (hover to see current wind gust speed)